Ana Sayfa
METAR-TAF:

METAR-TAF

Havaalanları :

Mount Pleasant Municipal Airport

Mount Pleasant, Michigan, Amerika Birleşik Devletleri

Enlem: 43-37N, Boylam: 084-44W, yükseklik: 230 m

Güncel hava durumu gözlemi

Rapor saat 23:55 UTC de 18 dakika önce yapıldı.
Sakin rüzgar
Sıcaklık 5°C
Nem 81%
Basınç 1010 hPa
Görüş mesafesi: 16.1 km
2000 ft yükseklikte çok bulutlu

METAR: KMOP 082355Z AUTO 00000KT 10SM OVC020 05/02 A2983 RMK AO2 T00450022 10061 20042

Saat: 19:13 (00:13 UTC)


TAF: eksik

4.000'den fazla havaalanı için hava durumu gözlemleri ve tahminleri (METAR ve TAF raporları).

Kullanılabilir istasyonlar harita üzerinde sarı ve kırmızı noktalarla gösterilir.

İstasyonun adını görmek için fareyi noktanın üzerinde gezdirin.

Sonrasında hava gözlem ve tahminlerini görmek için tıklayın.

Haritayı değiştirmek için: yaklaştırmak için siyah artı işaretli yeşil düğmeye ve uzaklaştırmak için de eksi işaretli düğmeye hızla tıklayın; bitişik haritalar için yeşil okları kullanın.


METAR-TAF: